TimeEDT,TemperatureF,Dew PointF,Humidity,Sea Level PressureIn,VisibilityMPH,Wind Direction,Wind SpeedMPH,Gust SpeedMPH,PrecipitationIn,Events,Conditions,WindDirDegrees,DateUTC
12:53 AM,28.0,26.1,92,29.75,10.0,North,4.6,-,N/A,,Clear,360,2013-03-25 04:53:00
1:53 AM,27.0,25.0,92,29.73,10.0,NNW,3.5,-,N/A,,Clear,340,2013-03-25 05:53:00
2:53 AM,26.1,24.1,92,29.72,10.0,North,4.6,-,N/A,,Clear,10,2013-03-25 06:53:00
3:53 AM,30.9,28.9,92,29.70,10.0,NNE,3.5,-,N/A,,Clear,20,2013-03-25 07:53:00
4:53 AM,33.1,30.0,89,29.68,10.0,NNE,6.9,-,N/A,,Clear,20,2013-03-25 08:53:00
5:53 AM,33.1,28.9,85,29.68,10.0,North,4.6,-,N/A,,Clear,10,2013-03-25 09:53:00
6:53 AM,32.0,28.0,85,29.67,10.0,NNE,5.8,-,N/A,,Clear,30,2013-03-25 10:53:00
7:53 AM,37.0,32.0,82,29.67,10.0,NE,4.6,-,N/A,,Clear,40,2013-03-25 11:53:00
8:53 AM,39.9,34.0,79,29.66,10.0,ENE,10.4,-,N/A,,Clear,60,2013-03-25 12:53:00
9:53 AM,42.1,33.1,70,29.62,10.0,ENE,17.3,-,N/A,,Clear,70,2013-03-25 13:53:00
10:53 AM,44.1,35.1,71,29.62,10.0,ENE,15.0,-,N/A,,Clear,70,2013-03-25 14:53:00
11:53 AM,44.1,33.1,65,29.60,10.0,East,18.4,27.6,N/A,,Scattered Clouds,80,2013-03-25 15:53:00
12:53 PM,43.0,30.0,60,29.58,10.0,East,23.0,-,N/A,,Clear,80,2013-03-25 16:53:00
1:53 PM,42.1,30.9,65,29.55,10.0,ENE,21.9,27.6,N/A,,Partly Cloudy,70,2013-03-25 17:53:00
2:53 PM,41.0,30.9,67,29.47,10.0,ENE,21.9,32.2,N/A,,Mostly Cloudy,60,2013-03-25 18:53:00
3:53 PM,39.9,30.0,68,29.46,10.0,ENE,25.3,32.2,N/A,,Mostly Cloudy,60,2013-03-25 19:53:00
4:53 PM,39.9,28.9,65,29.44,10.0,ENE,26.5,33.4,N/A,,Overcast,60,2013-03-25 20:53:00
5:53 PM,39.9,30.0,68,29.44,10.0,ENE,23.0,32.2,N/A,,Overcast,60,2013-03-25 21:53:00
6:53 PM,39.0,30.0,70,29.44,10.0,ENE,21.9,29.9,N/A,,Overcast,60,2013-03-25 22:53:00
7:53 PM,39.0,30.0,70,29.44,10.0,NE,19.6,28.8,N/A,,Overcast,50,2013-03-25 23:53:00
8:21 PM,39.2,30.2,70,29.45,10.0,NE,20.7,31.1,0.00,Rain,Light Rain,50,2013-03-26 00:21:00
8:33 PM,39.2,30.2,70,29.45,10.0,NE,19.6,28.8,0.00,,Overcast,50,2013-03-26 00:33:00
8:48 PM,39.2,28.4,65,29.44,10.0,ENE,20.7,27.6,0.00,,Overcast,70,2013-03-26 00:48:00
8:53 PM,37.9,30.0,73,29.45,10.0,ENE,21.9,28.8,0.00,Rain,Light Rain,60,2013-03-26 00:53:00
9:10 PM,37.4,30.2,75,29.44,10.0,NE,20.7,32.2,0.00,Rain,Light Rain,50,2013-03-26 01:10:00
9:23 PM,37.4,32.0,81,29.44,6.0,ENE,21.9,32.2,0.00,Rain,Light Rain,60,2013-03-26 01:23:00
9:53 PM,36.0,33.1,89,29.44,10.0,NE,19.6,29.9,0.01,Rain,Light Rain,50,2013-03-26 01:53:00
10:08 PM,35.6,33.8,93,29.43,6.0,NE,21.9,34.5,0.01,Rain,Light Rain,40,2013-03-26 02:08:00
10:17 PM,37.4,33.8,87,29.43,10.0,NE,18.4,31.1,0.01,,Overcast,40,2013-03-26 02:17:00
10:53 PM,37.9,33.1,83,29.42,10.0,NE,18.4,25.3,0.01,,Overcast,40,2013-03-26 02:53:00
11:53 PM,37.0,33.1,86,29.43,9.0,NE,20.7,34.5,0.00,Rain,Light Rain,40,2013-03-26 03:53:00